RYR307R EFHK-LIME

Flight info

Callsign RYR307R
Flight time N/A
Altitude 36000
Route VALOX Y117 ROSAX DCT ANFEV DCT PENOR DCT DOSAL/N0459F380 DCT GOVEN DCT MAREM DCT YUJKI DCT PEMEL DCT RUDAP DCT EBEDA DCT BADVI DCT BERAS/N0457F370 DCT LIKDA DCT EKPEB DCT NAXAV DCT RENTA DCT ATPED DCT LUSIL/N0396F190 T772 EKLIB
Aircraft B38M/M-SDE1FGHILORVWXY/HB1

Departure

Time 2026-05-06 18:21
Airport Helsinki Vantaa Airport (EFHK)

Arrival

Time N/A
Airport Il Caravaggio International Airport (LIME)
Time Latitude Longitude Altitude Speed Heading
2026-05-06 17:45 60.31442 24.97444 166 ft 0 kts 243°
2026-05-06 18:05 60.31448 24.97467 165 ft 4 kts 237°
2026-05-06 18:05 60.31463 24.97511 164 ft 4 kts 248°
2026-05-06 18:06 60.31464 24.97553 163 ft 4 kts 287°
2026-05-06 18:06 60.31450 24.97592 162 ft 4 kts 332°
2026-05-06 18:06 60.31427 24.97612 162 ft 2 kts 333°
2026-05-06 18:06 60.31426 24.97613 162 ft 0 kts 333°
2026-05-06 18:10 60.31427 24.97612 162 ft 1 kts 331°
2026-05-06 18:11 60.31439 24.97598 162 ft 3 kts 330°
2026-05-06 18:11 60.31470 24.97564 162 ft 6 kts 334°
2026-05-06 18:11 60.31513 24.97554 161 ft 8 kts 39°
2026-05-06 18:11 60.31572 24.97603 158 ft 11 kts 339°
2026-05-06 18:12 60.31638 24.97537 161 ft 10 kts 333°
2026-05-06 18:12 60.31703 24.97468 162 ft 11 kts 335°
2026-05-06 18:12 60.31774 24.97396 163 ft 12 kts 334°
2026-05-06 18:12 60.31848 24.97320 164 ft 12 kts 333°
2026-05-06 18:13 60.31929 24.97238 165 ft 13 kts 333°
2026-05-06 18:13 60.32008 24.97155 167 ft 13 kts 333°
2026-05-06 18:13 60.32098 24.97064 168 ft 16 kts 333°
2026-05-06 18:13 60.32210 24.96949 167 ft 20 kts 334°
2026-05-06 18:14 60.32330 24.96821 168 ft 15 kts 332°
2026-05-06 18:14 60.32368 24.96782 170 ft 0 kts 335°
2026-05-06 18:16 60.32372 24.96778 170 ft 3 kts 334°
2026-05-06 18:16 60.32412 24.96739 174 ft 10 kts 334°
2026-05-06 18:16 60.32501 24.96644 177 ft 19 kts 330°
2026-05-06 18:17 60.32627 24.96503 174 ft 19 kts 330°
2026-05-06 18:17 60.32751 24.96361 174 ft 21 kts 330°
2026-05-06 18:17 60.32867 24.96230 176 ft 16 kts 329°
2026-05-06 18:17 60.32917 24.96092 177 ft 12 kts 263°
2026-05-06 18:18 60.32903 24.95961 178 ft 4 kts 301°
2026-05-06 18:18 60.32913 24.95947 178 ft 3 kts 334°
2026-05-06 18:18 60.32975 24.95883 181 ft 16 kts 329°
2026-05-06 18:18 60.33078 24.95754 183 ft 19 kts 318°
2026-05-06 18:19 60.33173 24.95584 183 ft 15 kts 316°
2026-05-06 18:19 60.33213 24.95453 181 ft 12 kts 273°
2026-05-06 18:19 60.33167 24.95296 181 ft 15 kts 224°
2026-05-06 18:19 60.33108 24.95098 180 ft 18 kts 261°
2026-05-06 18:20 60.33114 24.94848 182 ft 18 kts 274°
2026-05-06 18:20 60.33117 24.94617 188 ft 15 kts 271°
2026-05-06 18:20 60.33120 24.94447 192 ft 11 kts 268°
2026-05-06 18:20 60.33076 24.94305 196 ft 16 kts 226°
2026-05-06 18:21 60.32947 24.94028 187 ft 54 kts 227°
2026-05-06 18:21 60.32509 24.93057 179 ft 131 kts 227°
2026-05-06 18:21 60.31769 24.91439 468 ft 168 kts 227°
2026-05-06 18:21 60.30980 24.89679 1476 ft 169 kts 229°
2026-05-06 18:22 60.30217 24.87796 2268 ft 181 kts 244°
2026-05-06 18:22 60.29910 24.85197 2810 ft 204 kts 272°
2026-05-06 18:22 60.30123 24.82208 3439 ft 227 kts 282°
2026-05-06 18:22 60.30383 24.78931 3741 ft 247 kts 269°
2026-05-06 18:23 60.29926 24.75531 3972 ft 261 kts 247°
2026-05-06 18:23 60.29243 24.72208 5187 ft 254 kts 249°
2026-05-06 18:23 60.28565 24.68847 6152 ft 265 kts 248°
2026-05-06 18:23 60.27863 24.65393 7171 ft 266 kts 249°
2026-05-06 18:24 60.27157 24.61925 8232 ft 269 kts 249°
2026-05-06 18:24 60.26436 24.58412 9246 ft 272 kts 247°
2026-05-06 18:24 60.25338 24.55314 10243 ft 278 kts 223°
2026-05-06 18:24 60.23627 24.53260 10803 ft 299 kts 204°
2026-05-06 18:25 60.21637 24.51750 11225 ft 319 kts 204°
2026-05-06 18:25 60.19508 24.50076 11643 ft 337 kts 205°
2026-05-06 18:25 60.17282 24.48308 12201 ft 349 kts 205°
2026-05-06 18:25 60.15009 24.46505 12991 ft 353 kts 205°
2026-05-06 18:26 60.12706 24.44685 13810 ft 357 kts 205°
2026-05-06 18:26 60.10383 24.42851 14526 ft 359 kts 205°
2026-05-06 18:26 60.08055 24.41018 15284 ft 360 kts 206°
2026-05-06 18:26 60.05711 24.39174 16034 ft 362 kts 206°
2026-05-06 18:27 60.03360 24.37328 16757 ft 364 kts 206°
2026-05-06 18:27 60.00996 24.35475 17469 ft 365 kts 206°
2026-05-06 18:27 59.98625 24.33620 18168 ft 367 kts 206°
2026-05-06 18:27 59.96234 24.31752 18765 ft 369 kts 206°
2026-05-06 18:28 59.93838 24.29883 19346 ft 371 kts 206°
2026-05-06 18:28 59.91424 24.28004 19932 ft 372 kts 206°
2026-05-06 18:28 59.89006 24.26126 20486 ft 374 kts 206°
2026-05-06 18:28 59.86577 24.24240 21051 ft 376 kts 206°
2026-05-06 18:29 59.84130 24.22344 21608 ft 378 kts 206°
2026-05-06 18:29 59.81708 24.20471 22143 ft 379 kts 206°
2026-05-06 18:29 59.79208 24.18541 22688 ft 381 kts 206°
2026-05-06 18:29 59.76759 24.16652 23208 ft 383 kts 206°
2026-05-06 18:30 59.74275 24.14734 23707 ft 384 kts 207°
2026-05-06 18:30 59.71981 24.12092 24101 ft 380 kts 219°
2026-05-06 18:30 59.69812 24.09055 24463 ft 384 kts 218°
2026-05-06 18:30 59.67620 24.05998 24875 ft 385 kts 218°
2026-05-06 18:31 59.65430 24.02924 25276 ft 388 kts 218°
2026-05-06 18:31 59.63227 23.99824 25651 ft 390 kts 218°
2026-05-06 18:31 59.61013 23.96709 26028 ft 392 kts 218°
2026-05-06 18:31 59.58786 23.93571 26393 ft 394 kts 218°
2026-05-06 18:32 59.56545 23.90420 26763 ft 396 kts 218°
2026-05-06 18:32 59.54295 23.87261 27107 ft 399 kts 218°
2026-05-06 18:32 59.52027 23.84080 27464 ft 401 kts 218°
2026-05-06 18:32 59.49742 23.80883 27804 ft 403 kts 217°
2026-05-06 18:33 59.47495 23.77575 28120 ft 404 kts 224°
2026-05-06 18:33 59.45540 23.73587 28439 ft 406 kts 227°
2026-05-06 18:33 59.43596 23.69623 28733 ft 408 kts 226°
2026-05-06 18:33 59.41629 23.65606 29139 ft 408 kts 226°
2026-05-06 18:34 59.39659 23.61583 29601 ft 407 kts 226°
2026-05-06 18:34 59.37699 23.57586 30043 ft 407 kts 226°
2026-05-06 18:34 59.35734 23.53584 30407 ft 406 kts 226°
2026-05-06 18:34 59.33778 23.49605 30800 ft 405 kts 226°
2026-05-06 18:35 59.31824 23.45639 31187 ft 404 kts 226°
2026-05-06 18:35 59.29875 23.41689 31570 ft 402 kts 226°
2026-05-06 18:35 59.27932 23.37760 31959 ft 401 kts 226°
2026-05-06 18:35 59.25992 23.33842 32342 ft 400 kts 226°
2026-05-06 18:36 59.24060 23.29948 32718 ft 399 kts 225°
2026-05-06 18:36 59.22132 23.26067 33088 ft 398 kts 225°
2026-05-06 18:36 59.20203 23.22194 33458 ft 397 kts 225°
2026-05-06 18:36 59.18283 23.18344 33820 ft 395 kts 225°
2026-05-06 18:37 59.16368 23.14508 34155 ft 394 kts 225°
2026-05-06 18:37 59.15095 23.11964 34321 ft 395 kts 225°
2026-05-06 18:37 59.12545 23.06874 34584 ft 396 kts 225°
2026-05-06 18:37 59.10618 23.03035 34798 ft 398 kts 225°
2026-05-06 18:38 59.08676 22.99174 35004 ft 399 kts 225°
2026-05-06 18:38 59.06734 22.95318 35196 ft 400 kts 225°
2026-05-06 18:38 59.04780 22.91448 35418 ft 401 kts 225°
2026-05-06 18:38 59.02821 22.87572 35614 ft 402 kts 225°
2026-05-06 18:39 59.00864 22.83708 35821 ft 403 kts 225°
2026-05-06 18:39 58.98886 22.79809 36024 ft 404 kts 225°
2026-05-06 18:39 58.96910 22.75922 36220 ft 405 kts 226°